Theta_e
363 360 349 345 343 342 341 340 335 330 331 342 335 353 343 344 347 346 347 340 339 338 337 337 338 338 339 340 340 340 341 341 341 341 341 341 340 340
356 362 358 343 348 344 342 341 339 335 331 338 339 346 348 341 346 347 346 348 342 339 337 336 336 337 338 339 339 339 339 340 340 339 339 338 337 337
363 363 359 361 344 342 343 342 339 338 333 336 340 351 356 350 348 349 346 349 343 338 338 337 335 335 336 337 337 337 337 336 335 334 333 333 333 333
361 360 358 350 359 358 344 355 345 350 337 351 350 344 350 355 356 355 347 342 344 339 339 337 335 334 333 334 335 335 333 332 330 328 328 328 328 329
363 361 358 357 359 346 348 345 343 346 345 338 337 341 343 345 349 353 353 351 343 338 335 334 334 334 333 332 331 330 326 325 323 322 323 324 325 326
365 363 360 357 356 357 354 352 353 345 344 340 337 336 340 349 343 339 341 343 341 340 341 337 335 333 332 330 329 327 322 320 319 320 320 320 321 322
367 366 363 357 347 351 350 351 350 346 338 338 337 336 335 337 341 340 337 339 342 343 344 344 341 338 337 330 333 330 326 323 320 319 318 317 317 318
366 367 365 351 347 338 338 339 347 351 346 337 337 339 350 345 340 338 337 335 333 347 341 340 344 342 341 340 334 335 328 323 320 319 318 317 316 316
369 368 365 358 351 355 337 335 334 335 341 350 345 347 355 352 352 351 348 342 337 345 342 335 344 339 341 328 327 328 323 320 320 319 318 316 315 313
365 366 366 363 359 354 354 345 343 343 342 343 350 351 351 357 355 353 352 349 345 342 346 331 338 336 335 332 329 327 323 319 319 317 316 314 311 309
362 365 365 364 348 335 354 351 345 344 334 331 332 332 335 337 343 347 338 338 333 340 342 334 335 330 329 328 329 325 323 320 319 317 315 313 311 309
360 360 339 357 337 326 353 354 350 345 344 342 338 335 334 336 332 346 344 335 340 333 342 331 332 325 318 326 323 323 323 316 314 312 312 312 310 316
354 356 360 330 328 321 329 356 350 348 338 343 340 339 340 342 339 339 343 339 339 329 332 332 325 322 319 317 320 321 321 320 319 319 310 308 309 312
355 356 357 323 323 318 323 334 324 332 343 340 339 338 338 339 341 340 342 343 342 337 331 333 323 319 317 314 312 317 318 321 320 320 320 315 309 308
359 342 324 313 314 317 321 322 324 341 340 337 336 335 337 340 340 340 342 343 340 337 330 333 325 327 317 312 310 312 312 315 318 319 318 318 318 319
335 347 337 328 323 330 324 326 339 338 338 339 337 338 339 337 334 334 330 329 325 326 335 335 333 328 315 313 313 311 313 312 316 316 317 316 318 318
340 340 334 333 328 330 331 335 339 342 339 340 340 338 333 331 330 328 327 327 322 322 323 326 331 329 321 324 312 315 315 315 315 316 316 313 314 314
339 334 331 330 328 329 331 333 335 336 339 336 334 332 330 328 325 326 326 325 323 321 321 321 322 317 315 321 320 314 314 312 313 316 317 310 308 312
335 331 330 330 330 331 331 332 332 335 337 334 333 333 328 327 326 324 325 325 321 322 323 320 316 312 308 307 315 315 312 312 313 312 311 308 307 308
331 329 329 329 330 328 330 329 334 334 332 337 334 327 328 329 325 326 325 322 321 321 317 316 314 312 311 310 309 311 308 315 311 309 308 309 310 309
332 332 332 331 330 330 330 331 332 332 332 329 328 329 329 328 327 324 323 312 316 318 314 313 315 314 317 314 309 311 314 306 311 313 310 305 304 305
335 336 337 336 336 332 332 331 332 328 328 329 331 331 330 328 325 324 322 319 317 315 313 313 318 315 313 311 309 312 311 313 311 308 307 306 304 299
336 337 337 336 336 334 333 328 328 328 330 329 327 328 329 325 326 324 322 319 315 312 311 311 312 313 312 311 310 309 312 311 309 308 309 308 307 306
Wind_Speed
9 8 8 7 5 5 5 5 6 5 7 8 5 5 2 6 9 9 8 16 14 12 11 9 10 11 10 9 10 9 8 8 8 8 9 10 12 13
9 10 8 9 6 6 6 6 5 6 6 6 6 5 6 5 9 6 7 9 13 13 13 11 10 12 10 11 11 9 8 8 7 7 7 8 9 10
10 9 11 9 8 8 7 7 6 6 7 6 3 7 6 5 5 6 7 7 9 18 14 13 12 11 11 11 10 9 8 7 6 5 6 6 6 8
14 12 12 10 10 8 7 7 8 6 7 5 4 6 7 9 7 6 7 8 7 12 10 11 10 10 10 9 9 8 6 5 4 4 7 7 8 8
15 14 13 11 10 11 10 9 9 6 6 8 7 7 6 7 8 7 6 7 6 14 15 14 12 10 10 8 7 7 7 6 5 5 5 7 9 9
15 14 14 14 14 13 11 11 8 8 8 8 8 8 7 6 6 7 8 8 8 6 9 8 12 13 11 12 14 13 11 8 6 5 6 7 8 10
15 15 15 17 18 15 11 12 11 10 9 8 8 8 8 7 8 7 8 7 5 6 4 3 6 7 10 13 14 14 11 8 7 6 6 7 8 9
16 16 15 18 18 18 17 13 14 11 11 10 9 9 8 6 6 7 7 6 5 2 5 5 4 4 6 9 9 5 10 7 7 6 5 7 9 9
16 14 16 15 17 16 15 18 16 13 15 11 9 7 3 6 6 4 5 6 7 3 5 6 4 4 8 8 13 15 13 9 3 2 5 7 7 7
17 19 19 18 15 19 18 17 18 15 12 8 6 5 5 5 3 5 6 6 7 7 7 7 5 6 5 4 11 11 10 8 8 8 8 9 9 9
19 21 21 20 19 22 19 18 18 17 12 14 10 3 4 4 5 6 8 8 8 4 6 8 6 5 6 5 2 11 12 12 12 11 13 12 12 9
21 21 17 20 19 21 22 19 18 17 14 10 6 3 5 5 6 7 6 8 4 5 1 6 5 4 7 6 4 7 8 13 12 16 15 13 13 7
17 16 15 23 21 22 25 17 16 10 12 9 9 7 7 8 7 7 8 7 4 7 4 4 2 5 6 8 7 6 6 5 6 4 13 14 8 10
19 16 14 20 28 25 23 23 16 17 12 9 8 7 9 11 10 10 10 8 4 2 5 1 1 4 6 7 8 6 6 5 6 7 6 7 12 15
11 5 6 10 15 15 19 15 17 8 13 14 15 12 11 9 10 8 8 7 3 4 4 4 3 4 5 8 8 7 6 7 6 6 6 7 8 9
11 9 6 6 11 10 13 14 13 17 17 14 11 11 10 10 8 8 8 7 7 7 8 8 7 5 6 7 7 7 7 7 6 6 7 7 8 8
12 4 4 4 6 7 9 10 8 8 11 11 12 11 10 6 7 8 7 8 8 8 9 9 8 7 6 6 7 7 6 6 6 6 8 9 8 8
6 5 6 5 6 8 8 6 7 10 10 8 7 7 7 9 8 8 8 9 9 7 6 6 10 9 8 12 14 7 5 6 7 6 7 9 9 9
1 3 2 2 1 4 7 7 8 9 9 8 9 9 8 7 9 8 9 8 7 7 6 5 5 6 7 7 4 8 4 5 6 7 8 9 10 9
4 4 2 2 2 3 5 5 7 6 7 9 9 8 8 10 10 10 9 8 8 7 7 7 6 7 7 5 4 6 14 5 5 7 8 9 7 11
3 2 2 3 5 5 5 7 9 8 7 6 6 9 11 11 10 10 10 6 7 8 8 8 5 2 1 2 7 6 3 10 3 4 7 9 10 10
5 3 5 5 7 7 5 5 7 6 6 7 11 10 10 11 11 11 10 9 7 8 7 5 8 4 5 8 6 5 4 2 9 13 12 3 5 9
5 4 6 5 7 6 8 7 6 7 7 8 7 9 10 10 9 9 9 9 9 8 9 8 6 6 7 7 5 5 6 5 5 6 6 10 8 9
Wind_Direction
204 216 241 249 222 222 224 247 270 268 206 159 225 160 255 185 183 201 228 186 195 198 209 217 218 234 244 253 256 261 267 273 279 288 294 300 306 308
223 196 219 241 223 227 228 229 244 267 287 140 193 159 179 225 155 203 237 154 185 196 205 210 216 234 241 242 248 250 256 259 269 276 285 290 297 305
223 219 204 239 251 212 225 235 235 235 249 264 168 137 159 230 176 191 224 221 214 199 198 201 208 218 229 238 240 243 241 245 253 270 281 281 285 294
214 220 213 212 231 261 233 224 231 229 244 246 280 158 195 192 238 234 250 252 245 162 170 200 206 215 227 238 238 232 238 255 270 295 296 295 290 291
211 214 215 211 214 228 229 233 221 234 223 255 256 218 224 203 200 231 240 248 277 152 191 201 199 199 204 200 214 233 239 247 261 277 296 301 307 305
211 214 211 210 217 210 229 226 255 226 217 237 240 251 209 209 218 252 212 221 240 249 207 219 179 204 204 203 212 216 217 225 233 255 264 278 287 289
214 212 215 214 210 211 208 213 215 226 239 215 246 260 254 228 207 223 244 248 178 237 241 208 194 208 218 221 229 214 205 200 223 252 272 277 280 280
220 216 218 204 210 199 204 225 205 209 217 231 226 227 237 243 241 255 270 273 265 152 280 238 237 219 255 210 152 136 171 171 200 217 241 261 272 282
225 223 223 220 204 208 205 213 227 218 218 210 238 256 231 223 248 252 251 269 268 275 241 267 273 228 238 121 144 162 169 171 158 212 246 258 261 266
223 221 225 224 207 202 203 209 218 220 219 217 223 234 259 282 227 225 247 268 255 251 271 264 278 282 308 303 166 149 155 174 193 213 232 238 237 248
230 228 222 218 211 193 206 205 208 213 194 189 208 302 47 112 257 235 218 232 262 264 245 249 246 280 287 278 246 165 187 199 201 209 225 229 236 241
234 235 226 222 205 191 204 207 207 205 188 177 193 162 186 211 203 226 224 242 230 289 229 216 242 299 290 282 301 193 228 215 208 221 226 228 233 253
229 225 222 196 202 192 203 215 214 163 181 183 193 183 193 205 205 209 215 244 236 234 132 220 256 277 279 284 292 298 291 307 303 275 231 238 226 225
221 227 224 192 196 191 186 198 161 165 169 178 182 174 193 199 201 207 186 218 253 78 112 82 233 282 294 290 286 292 302 305 302 296 323 315 213 231
255 288 356 174 186 184 186 170 179 225 145 175 191 180 175 194 209 198 169 169 187 144 180 176 252 303 276 276 282 291 306 298 317 322 323 328 337 324
248 251 272 206 187 177 164 161 192 161 210 191 182 193 177 177 194 174 162 169 189 197 207 186 194 217 259 265 278 290 299 300 312 327 350 324 311 322
228 192 192 200 175 171 178 180 198 190 187 186 192 181 180 160 171 168 168 180 199 216 180 193 193 220 242 254 265 263 276 297 320 353 333 319 306 320
180 198 198 194 194 182 177 175 188 190 198 179 183 165 166 172 169 166 189 202 204 207 229 197 175 216 223 216 217 259 298 324 330 337 311 324 324 324
360 116 94 279 177 171 165 174 180 191 175 176 173 174 172 174 170 172 192 209 209 217 217 221 221 239 254 269 137 264 311 319 319 313 335 328 321 322
88 104 122 153 169 146 157 195 175 190 184 177 171 148 172 176 177 187 193 198 210 208 212 211 218 232 242 278 315 310 202 253 322 330 326 319 304 282
129 143 178 178 175 200 194 190 180 170 150 137 140 183 187 180 179 196 198 200 193 207 217 219 187 53 163 300 248 249 148 203 196 302 313 316 322 327
241 242 183 185 162 156 142 121 129 135 154 170 196 182 185 189 191 191 203 172 195 219 217 218 155 190 212 235 268 280 286 336 219 229 233 267 325 323
217 191 158 164 167 165 139 129 142 160 181 193 178 186 191 198 205 194 197 199 182 199 229 212 212 207 230 240 246 269 283 308 335 316 359 179 183 201